[[{"header":{"parameterUnit":"m.s-1","parameterCategory":1,"la1":30.2991,"la2":30.254,"lo1":-89.0895,"lo2":-89.0444,"dy":0.0017,"dx":0.0017,"nx":28,"ny":28,"refTime":"2024-05-31T03:00:00:Z","depth":0,"parameterNumber":2,"parameterNumberName":"U-component_of_WINDS"},"data":[0,0,0,0,0,0,0,0,0,0,0,0,0,0,0,0,0,0,0,0,0,0,0,0,0,0,0,0,0,0,0,0,0,0,0,0,0,0,0,0,0,0,0,0,0,0,0,0,0,0,0,0,0,0,0,0,0,0,-6.4075,-6.4076,0,-6.4149,-6.415,-6.4151,-6.4118,-6.4116,-6.4114,-6.4112,-6.4185,-6.4188,-6.4192,0,0,0,0,0,0,0,0,0,0,0,0,0,-6.3903,-6.3907,-6.4075,-6.4076,-6.4077,-6.4149,-6.415,-6.4151,-6.4118,-6.4116,-6.4113,-6.4111,-6.4183,-6.4188,-6.4192,0,0,0,0,0,0,0,0,0,0,0,0,0,-6.3978,-6.3908,-6.4075,-6.4069,-6.4069,-6.4149,-6.415,-6.4151,-6.4118,-6.4116,-6.4113,-6.411,-6.4182,-6.4187,-6.4193,-6.4281,0,0,-6.4209,-6.4212,0,0,0,0,0,0,0,0,-6.3974,-6.3984,-6.4069,-6.407,-6.407,-6.4121,-6.4116,-6.4195,-6.4119,-6.41,-6.4112,-6.4109,-6.4166,-6.4172,-6.4192,-6.4284,-6.4287,-6.421,-6.4213,-6.4215,-6.4217,0,0,0,0,0,0,0,-6.3968,-6.3981,-6.4104,-6.407,-6.4071,-6.4062,-6.407,-6.4131,-6.4147,-6.4101,-6.4099,-6.4108,-6.4165,-6.4187,-6.4193,-6.4288,-6.421,-6.4214,-6.4218,-6.422,-6.4458,-6.4461,0,0,0,0,0,0,-6.3964,-6.3977,-6.4102,-6.4107,-6.4014,-6.4068,-6.4076,-6.4108,-6.4146,-6.4149,-6.4111,-6.4106,-6.4179,-6.4187,-6.4196,-6.4301,-6.4215,-6.422,-6.4224,-6.4455,-6.4458,-6.4462,0,0,0,0,0,0,-6.396,-6.3975,-6.4099,-6.4041,-6.4056,-6.4074,-6.4109,-6.4111,-6.4132,-6.4153,-6.4156,-6.413,-6.4177,-6.4188,-6.426,-6.4303,-6.4223,-6.4228,-6.4451,-6.4456,-6.446,-6.4513,0,0,0,0,0,0,-6.3955,-6.3974,-6.4008,-6.4042,-6.4059,-6.4163,-6.4112,-6.4114,-6.4142,-6.4137,-6.4172,-6.4175,-6.4176,-6.4252,-6.4266,-6.4309,-6.4232,-6.4447,-6.4453,-6.4459,-6.4507,-6.4519,-6.4528,0,0,0,0,0,-6.3949,-6.4019,-6.401,-6.4025,-6.4102,-6.4165,-6.4175,-6.4175,-6.4145,-6.4179,-6.4194,-6.4174,-6.4297,-6.426,-6.4275,-6.4321,-6.4444,-6.4451,-6.4458,-6.4503,-6.4516,-6.4528,0,0,0,0,0,0,-6.3988,-6.4023,-6.4013,-6.4097,-6.4129,-6.416,-6.4202,-6.419,-6.423,-6.4224,-6.4222,-6.423,-6.4305,-6.432,-6.4278,-6.4409,-6.4366,-6.4376,-6.4395,-6.4408,-6.4419,-6.4412,-6.4237,0,0,0,0,0,-6.4006,-6.4055,-6.4084,-6.4154,-6.4171,-6.4184,-6.4212,-6.421,-6.4242,-6.4255,-6.4274,-6.4305,-6.4351,-6.4381,-6.4424,-6.4511,-6.4517,-6.455,-6.456,-6.4569,-6.4577,-6.4623,-6.4638,-6.4484,-6.4484,-6.4484,0,0,-6.4044,-6.407,-6.41,-6.4163,-6.4187,-6.4237,-6.4195,-6.425,-6.4287,-6.4262,-6.4331,-6.4348,-6.4383,-6.4462,-6.4498,-6.4477,-6.4621,-6.4578,-6.4584,-6.4587,-6.4632,-6.4646,-6.4659,-6.4489,-6.4488,-6.4487,0,0,-6.4138,-6.4163,-6.4224,-6.425,-6.4289,-6.4298,-6.4313,-6.4347,-6.4356,-6.4427,-6.441,-6.4454,-6.4533,-6.4558,-6.4582,-6.4689,-6.4672,-6.4704,-6.4758,-6.4803,-6.4815,-6.4826,-6.4863,-6.4876,-6.4712,-6.4712,-6.4712,0,-6.4179,-6.4255,-6.4257,-6.4314,-6.4341,-6.4324,-6.4386,-6.4411,-6.4461,-6.448,-6.4457,-6.4557,-6.458,-6.4665,-6.4691,-6.4712,-6.4728,-6.4698,-6.4814,-6.4824,-6.4834,-6.4869,-6.4883,-6.4716,-6.4715,-6.4715,-6.4715,0,-6.4303,-6.4356,-6.4401,-6.4451,-6.4485,-6.4544,-6.4554,-6.4588,-6.4584,-6.4596,-6.4667,-6.4695,-6.4743,-6.4764,-6.476,-6.485,-6.4835,-6.4814,-6.477,-6.4852,-6.4885,-6.4898,-6.4721,-6.4719,-6.4718,-6.4718,0,0,-6.4419,-6.4473,-6.4489,-6.4512,-6.4554,-6.4595,-6.4654,-6.4703,-6.4731,-6.4767,-6.4815,-6.4885,-6.4865,-6.4892,-6.4891,-6.4932,-6.5014,-6.4905,-6.4905,-6.4922,-6.5113,-6.5127,-6.5143,-6.5005,-6.5007,-6.5009,-6.5109,0,-6.4515,-6.4618,-6.4623,-6.4716,-6.4765,-6.4751,-6.4802,-6.4834,-6.4847,-6.489,-6.4904,-6.4953,-6.4924,-6.494,-6.498,-6.4995,-6.5052,-6.4989,-6.5048,-6.505,-6.5036,-6.516,-6.5175,-6.5267,-6.5122,-6.5124,-6.5126,0,-6.4639,-6.468,-6.4779,-6.4816,-6.4836,-6.4882,-6.4928,-6.497,-6.5006,-6.5012,-6.5044,-6.5039,-6.5098,-6.5056,-6.5138,-6.5095,-6.5121,-6.5133,-6.5136,-6.5139,-6.509,-6.5164,-6.5297,-6.531,-6.5147,-6.5145,-6.5143,0,-6.4711,-6.4792,-6.4861,-6.4882,-6.4927,-6.4959,-6.498,-6.5013,-6.5043,-6.5083,-6.5102,-6.515,-6.5174,-6.5211,-6.5218,-6.5187,-6.53,-6.5259,-6.5306,-6.5306,-6.5327,-6.5325,-6.5464,-6.5349,-6.5348,-6.5348,-6.5348,0,-6.4815,-6.4875,-6.4894,-6.4937,-6.5004,-6.5011,-6.5077,-6.5095,-6.5126,-6.5171,-6.5163,-6.5206,-6.5214,-6.5259,-6.5265,-6.5331,-6.5343,-6.535,-6.535,-6.5349,-6.5348,-6.5363,-6.5355,-6.5352,-6.5351,-6.535,-6.535,0,-6.4905,-6.4921,-6.4995,-6.5033,-6.5044,-6.5092,-6.5124,-6.5165,-6.5179,-6.5236,-6.525,-6.5271,-6.5324,-6.5336,-6.5397,-6.5402,-6.548,-6.5476,-6.5468,-6.5466,-6.5512,-6.5507,-6.5663,-6.5683,-6.5557,-6.5559,-6.556,0,-6.4969,-6.5015,-6.5059,-6.509,-6.5112,-6.5161,-6.5192,-6.5201,-6.5233,-6.5279,-6.5314,-6.5366,-6.5407,-6.5491,-6.5512,-6.5559,-6.5554,-6.5606,-6.5561,-6.5558,-6.5552,-6.5548,-6.5553,-6.5613,-6.5614,-6.5616,-6.5616,0,-6.508,-6.5086,-6.5131,-6.518,-6.5218,-6.5256,-6.5293,-6.5318,-6.5332,-6.5369,-6.5423,-6.5456,-6.552,-6.5571,-6.562,-6.564,-6.563,-6.5631,-6.5644,-6.5642,-6.5634,-6.5637,-6.5488,-6.5627,-6.5626,-6.5625,-6.5624,-6.5624,-6.5158,-6.5198,-6.5236,-6.5287,-6.5316,-6.5351,-6.5391,-6.5411,-6.5457,-6.551,-6.5513,-6.5572,-6.5608,-6.5672,-6.5696,-6.5742,-6.5726,-6.5745,-6.5749,-6.5753,-6.5756,-6.563,-6.5751,-6.5751,-6.575,-6.575,-6.575,0,-6.5266,-6.5291,-6.5338,-6.539,-6.5431,-6.5421,-6.5462,-6.5496,-6.5548,-6.5583,-6.5625,-6.5687,-6.5738,-6.5764,-6.5814,-6.5845,-6.5842,-6.5858,-6.5854,-6.5859,-6.5769,-6.5751,-6.5859,-6.5859,-6.5859,-6.5859,-6.5859,-6.5859,-6.5327,-6.5396,-6.5407,-6.5489,-6.5513,-6.5571,-6.5595,-6.5628,-6.5656,-6.5726,-6.5769,-6.5786,-6.5818,-6.587,-6.5916,-6.5922,-6.594,-6.5958,-6.5961,-6.5876,-6.5865,-6.5854,-6.5838,-6.5962,-6.5962,-6.6047,-6.6048,-6.6048]},{"header":{"parameterUnit":"m.s-1","parameterCategory":1,"la1":30.2991,"la2":30.254,"lo1":-89.0895,"lo2":-89.0444,"dy":0.0017,"dx":0.0017,"nx":28,"ny":28,"refTime":"2024-05-31T03:00:00:Z","depth":0,"parameterNumber":3,"parameterNumberName":"V-component_of_WINDS"},"data":[0,0,0,0,0,0,0,0,0,0,0,0,0,0,0,0,0,0,0,0,0,0,0,0,0,0,0,0,0,0,0,0,0,0,0,0,0,0,0,0,0,0,0,0,0,0,0,0,0,0,0,0,0,0,0,0,0,0,3.4457,3.4457,0,3.442,3.442,3.442,3.4421,3.4422,3.4422,3.4423,3.4381,3.4379,3.4377,0,0,0,0,0,0,0,0,0,0,0,0,0,3.4528,3.4526,3.4457,3.4457,3.4457,3.442,3.442,3.4419,3.4421,3.4422,3.4422,3.4423,3.4381,3.4379,3.4377,0,0,0,0,0,0,0,0,0,0,0,0,0,3.4494,3.4526,3.4458,3.4453,3.4452,3.4421,3.442,3.4419,3.4421,3.4422,3.4423,3.4423,3.4382,3.4379,3.4377,3.4346,0,0,3.437,3.4368,0,0,0,0,0,0,0,0,3.4496,3.4492,3.4454,3.4453,3.4452,3.4426,3.4429,3.4395,3.4421,3.4433,3.4423,3.4424,3.4395,3.4391,3.4383,3.4344,3.4342,3.4369,3.4368,3.4367,3.4366,0,0,0,0,0,0,0,3.4499,3.4493,3.4443,3.4454,3.4453,3.4452,3.4449,3.4423,3.441,3.4432,3.4432,3.4428,3.4394,3.4385,3.4382,3.4341,3.4369,3.4367,3.4366,3.4365,3.4278,3.4277,0,0,0,0,0,0,3.4502,3.4495,3.4444,3.4442,3.4477,3.445,3.4446,3.4434,3.441,3.4407,3.4427,3.4428,3.4389,3.4384,3.438,3.4343,3.4367,3.4365,3.4363,3.4279,3.4278,3.4277,0,0,0,0,0,0,3.4504,3.4498,3.4445,3.4469,3.4462,3.4448,3.4435,3.4433,3.4423,3.4406,3.4404,3.442,3.4389,3.4383,3.4355,3.4342,3.4363,3.4361,3.428,3.4278,3.4277,3.4269,0,0,0,0,0,0,3.4506,3.4498,3.4486,3.4468,3.4461,3.4421,3.4434,3.4431,3.4419,3.442,3.4399,3.4396,3.4389,3.4359,3.4353,3.4339,3.4359,3.4281,3.4279,3.4277,3.427,3.4267,3.4265,0,0,0,0,0,3.4508,3.4484,3.4486,3.448,3.4446,3.4421,3.4416,3.441,3.4418,3.4406,3.4396,3.4397,3.4345,3.4356,3.4349,3.4334,3.4281,3.4279,3.4278,3.4271,3.4268,3.4265,0,0,0,0,0,0,3.4499,3.4482,3.4483,3.4453,3.4439,3.4421,3.4405,3.4406,3.4388,3.439,3.4382,3.4377,3.4349,3.4339,3.4352,3.4304,3.4314,3.4311,3.4311,3.4308,3.4306,3.4308,3.4357,0,0,0,0,0,3.4494,3.4476,3.4461,3.4436,3.4429,3.4419,3.4407,3.4404,3.4389,3.4382,3.4369,3.4353,3.4334,3.432,3.4301,3.4269,3.4265,3.4256,3.4253,3.4251,3.4248,3.4232,3.4228,3.427,3.427,3.427,0,0,3.4481,3.447,3.4459,3.4433,3.4422,3.4403,3.4413,3.4392,3.4378,3.4378,3.4351,3.4342,3.4324,3.4294,3.428,3.4284,3.4236,3.4249,3.4247,3.4245,3.423,3.4226,3.4222,3.4269,3.4269,3.4269,0,0,3.445,3.444,3.4418,3.4408,3.4391,3.4385,3.438,3.4363,3.4358,3.4331,3.4332,3.4315,3.428,3.4268,3.4257,3.4225,3.4225,3.4219,3.4204,3.4189,3.4186,3.4183,3.4172,3.4168,3.4216,3.4216,3.4216,0,3.4437,3.441,3.4406,3.4386,3.4376,3.4378,3.4356,3.4345,3.4323,3.4315,3.4321,3.428,3.4267,3.4236,3.4228,3.4219,3.4213,3.422,3.4187,3.4184,3.4181,3.417,3.4166,3.4215,3.4215,3.4215,3.4215,0,3.4395,3.4376,3.436,3.4341,3.4329,3.4308,3.4301,3.4289,3.4288,3.4281,3.4255,3.4241,3.422,3.4212,3.421,3.4181,3.4184,3.4188,3.4198,3.4176,3.4166,3.4162,3.4214,3.4214,3.4214,3.4215,0,0,3.4354,3.4336,3.433,3.4322,3.4306,3.4291,3.4271,3.4252,3.4242,3.4227,3.421,3.4183,3.4187,3.4175,3.4172,3.4158,3.4135,3.4164,3.4164,3.416,3.4103,3.41,3.4095,3.4136,3.4135,3.4135,3.4105,0,3.4321,3.4286,3.4284,3.4253,3.4236,3.4239,3.4222,3.421,3.4204,3.4188,3.4181,3.4162,3.417,3.4163,3.4149,3.4141,3.4124,3.4143,3.4119,3.4119,3.4123,3.409,3.4086,3.4058,3.4101,3.41,3.41,0,3.4278,3.4264,3.4231,3.422,3.4213,3.4197,3.4181,3.4166,3.4153,3.415,3.4138,3.4137,3.4117,3.4128,3.41,3.4113,3.4104,3.4099,3.4097,3.4094,3.4107,3.4086,3.4049,3.4045,3.4093,3.4094,3.4094,0,3.4252,3.4225,3.4203,3.4196,3.4182,3.4171,3.4164,3.4152,3.4142,3.4127,3.4121,3.4104,3.4094,3.4081,3.4076,3.4085,3.4048,3.4059,3.4045,3.4045,3.4036,3.4036,3.3997,3.403,3.403,3.4031,3.4031,0,3.4215,3.4195,3.4192,3.4177,3.4156,3.4154,3.4132,3.4126,3.4115,3.41,3.4102,3.4087,3.4082,3.4067,3.4063,3.404,3.4036,3.4033,3.4032,3.4032,3.4033,3.4025,3.4027,3.4029,3.403,3.403,3.403,0,3.4182,3.4179,3.4155,3.4144,3.4141,3.4125,3.4116,3.4103,3.4099,3.4079,3.4075,3.4067,3.405,3.4044,3.4022,3.402,3.3994,3.3995,3.3999,3.3998,3.3984,3.3986,3.3938,3.3932,3.397,3.397,3.3969,0,3.4159,3.4144,3.4133,3.4124,3.4117,3.4102,3.4092,3.4091,3.408,3.4066,3.4054,3.4038,3.4024,3.3996,3.3988,3.3972,3.3972,3.3957,3.3969,3.3971,3.3972,3.3973,3.3972,3.3954,3.3953,3.3953,3.3953,0,3.4118,3.4118,3.4104,3.4091,3.408,3.4069,3.4058,3.4051,3.4047,3.4036,3.4019,3.4009,3.3988,3.3972,3.3956,3.3948,3.395,3.395,3.3945,3.3945,3.3948,3.3947,3.3992,3.395,3.395,3.3951,3.3951,3.3951,3.4089,3.4076,3.4067,3.4053,3.4046,3.4036,3.4024,3.4019,3.4006,3.399,3.399,3.3972,3.3961,3.394,3.3932,3.3918,3.3922,3.3916,3.3914,3.3913,3.3912,3.3952,3.3915,3.3915,3.3915,3.3915,3.3915,0,3.4048,3.4043,3.403,3.4017,3.4006,3.4011,3.4,3.399,3.3975,3.3965,3.3953,3.3934,3.3919,3.3911,3.3896,3.3886,3.3887,3.3882,3.3883,3.3881,3.3908,3.3914,3.3882,3.3882,3.3882,3.3882,3.3882,3.3882,3.4026,3.4006,3.4005,3.3981,3.3976,3.396,3.3954,3.3945,3.3938,3.3918,3.3906,3.3902,3.3893,3.3878,3.3864,3.3863,3.3857,3.3852,3.385,3.3876,3.3879,3.3882,3.3887,3.3851,3.3851,3.3824,3.3824,3.3824]}]]